BREEZE-M DEB (TANK), 44627

Orbit data source: Space-Track

BREEZE-M DEB (TANK), 44627 is space debris in HEO originally from a launch on Wed, 09 Oct 2019 UTC launched from the Tyuratam Missile And Space Complex (TTMTR). Debris objects in space refer to the collection of defunct objects orbiting the Earth. Examples of debris include non-operational satellites, rocket bodies, and fragments generated from explosions, collisions, or faulty payload assembly.

Loading next visibility...
Identifier
44627, 2019-067D
Orbit
HEO
Country
Flag of CISCIS
Related business
Manufacturer
Khrunichev
Mission
Spacecraft
Bus & Motor
BRIZ TANK, Unknown motor
Mass
~1,000 kg wet, 1,000 kg dry
Launch date (UTC)
2019-10-09 (7 years ago)
Launch vehicle
Unknown
Launch site
Tyuratam Missile And Space Complex (TTMTR)
Object type
Payload
Rocket body
Debris
Shape & HBR
Torus, Unknown HBR
Radar Cross Section
8.218 m², Large (>1 m²)

Expand to show TLE details & history
Last TLE update: 2 days ago

TLE from 2 days ago
0 BREEZE-M DEB (TANK)
1 44627U 19067D   26170.95713663  .00002516  00000-0  68779-3 0  9996
2 44627  50.3218 219.7894 5786942 225.6566  69.2640  4.34001182104013
Epoch: 2026-06-19T22:58Z
TLE epoch observation values (Epoch: 2026-06-19T22:58:16.604Z)
Latitude
0.00002°
Longitude
-32.95172°
Altitude
11,363.211 km
Speed
4.453 km/s
True Right ascension
14h 39m 11s
True Declination
0° 00' 00"
Sunlit
Object was in daylight at epoch
Visualization orbit readout
Latitude
Unknown
Longitude
Unknown
Altitude
Unknown
Speed
Unknown
Apparent Right ascension
Unknown
Apparent Declination
Unknown
Sunlit
N/A
Visualization observer readout
Local Sidereal Time
21:40:30
Azimuth
Unknown
Elevation
Unknown
Doppler factor
Unknown
Orbital elements
Apogee altitude
18,686.136 km
Perigee altitude
310.76 km
Semi-major axis
15,876.585 km
Eccentricity
0.57869
Inclination
50.3218°
RAAN
219.7894°
Arg. of periapsis
225.6566°
True anomaly
134.40008°
Mean anomaly
69.264°
Eccentric anomaly
101.72848°
Mean motion
1.08494 °/min
Orbital period
331.81 mins
BSTAR
0.00068779
Loading maneuver chart data...
Computing Atmospheric mass density...
Loading historical data...
Loading historical data...
Loading historical data...
Loading historical data...
Loading historical data...
Loading historical data...
Loading historical data...
Other satellites on launch #67 in the year 2019 (2019-10-09 UTC)

Documentation

Showing up to 5 results
|